Location: Alsip
(41.6689°N, 87.7387°W)
Time: 14:24:10
(UTC+00:00)

Cosmos 494 Rocket - Pass Details

Date: 14 July 2020
Orbit: 743 x 770 km, 74.1° (Epoch: 04 August)

Event Time Altitude Azimuth Distance (km) Brightness Sun altitude
Exits shadow 05:20:25 57° 257° (WSW) 882 4.2 -26.2°
Maximum altitude 05:21:02 62° 292° (WNW) 844 4.2 -26.2°
Drops below altitude 10° 05:26:08 10° 13° (NNE) 2,274 7.3 -26.3°
Sets 05:28:32 0° 17° (NNE) 3,199 8.2 -26.4°
